• în Republica Moldova
  • Lista ţărilor
  • Pe 7 zile
  • Temperatura apei
  • Hartă satelitară
  • Meteo pe hartă
  • Widget-uri
  • user-avatar
    Intrare

    Meteo pe oră la Ondjiwa

    Astăzi, 21 Mai, Luni

    Timp Temperatura Precipitaţii Vânt Presiune Umiditate
    00:00 +20°C° 0 mm 2 m/s 667 mmHg 29%
    01:00 +19°C° 0 mm 2 m/s 667 mmHg 28%
    02:00 +19°C° 0 mm 2 m/s 667 mmHg 27%
    03:00 +18°C° 0 mm 2 m/s 667 mmHg 26%
    04:00 +17°C° 0 mm 2 m/s 667 mmHg 26%
    05:00 +18°C° 0 mm 1 m/s 667 mmHg 26%
    06:00 +18°C° 0 mm 1 m/s 667 mmHg 27%
    07:00 +19°C° 0 mm 1 m/s 668 mmHg 26%
    08:00 +22°C° 0 mm 1 m/s 669 mmHg 22%
    09:00 +25°C° 0 mm 1 m/s 669 mmHg 19%
    10:00 +28°C° 0 mm 1 m/s 670 mmHg 16%
    11:00 +30°C° 0 mm 1 m/s 670 mmHg 16%
    12:00 +31°C° 0 mm 1 m/s 670 mmHg 16%
    13:00 +32°C° 0 mm 1 m/s 669 mmHg 16%
    14:00 +32°C° 0 mm 1 m/s 669 mmHg 16%
    15:00 +31°C° 0 mm 1 m/s 668 mmHg 15%
    16:00 +31°C° 0 mm 1 m/s 668 mmHg 15%
    17:00 +29°C° 0 mm 2 m/s 668 mmHg 18%
    18:00 +26°C° 0 mm 2 m/s 667 mmHg 21%
    19:00 +24°C° 0 mm 2 m/s 667 mmHg 23%
    20:00 +23°C° 0 mm 2 m/s 667 mmHg 24%
    21:00 +21°C° 0 mm 2 m/s 668 mmHg 25%
    22:00 +21°C° 0 mm 2 m/s 668 mmHg 27%
    23:00 +20°C° 0 mm 2 m/s 668 mmHg 28%

    Mâine, 22 Mai, Marţi

    Timp Temperatura Precipitaţii Vânt Presiune Umiditate
    00:00 +19°C° 0 mm 2 m/s 668 mmHg 30%
    01:00 +20°C° 0 mm 1 m/s 668 mmHg 32%
    02:00 +19°C° 0 mm 1 m/s 668 mmHg 34%
    03:00 +19°C° 0 mm 1 m/s 667 mmHg 37%
    04:00 +16°C° 0 mm 0 m/s 667 mmHg 39%
    05:00 +18°C° 0 mm 1 m/s 668 mmHg 40%
    06:00 +18°C° 0 mm 1 m/s 668 mmHg 42%
    07:00 +19°C° 0 mm 1 m/s 668 mmHg 44%
    08:00 +22°C° 0 mm 1 m/s 669 mmHg 39%
    09:00 +25°C° 0 mm 2 m/s 670 mmHg 34%
    10:00 +28°C° 0 mm 3 m/s 671 mmHg 29%
    11:00 +29°C° 0 mm 3 m/s 671 mmHg 27%
    12:00 +30°C° 0 mm 3 m/s 670 mmHg 24%
    13:00 +31°C° 0 mm 3 m/s 670 mmHg 22%
    14:00 +31°C° 0 mm 3 m/s 670 mmHg 22%
    15:00 +31°C° 0 mm 3 m/s 669 mmHg 22%
    16:00 +31°C° 0 mm 3 m/s 669 mmHg 21%
    17:00 +28°C° 0 mm 3 m/s 669 mmHg 25%
    18:00 +26°C° 0 mm 2 m/s 669 mmHg 28%
    19:00 +24°C° 0 mm 2 m/s 669 mmHg 32%
    20:00 +23°C° 0 mm 1 m/s 669 mmHg 33%
    21:00 +23°C° 0 mm 1 m/s 669 mmHg 33%
    22:00 +22°C° 0 mm 1 m/s 669 mmHg 34%
    23:00 +21°C° 0 mm 1 m/s 669 mmHg 36%

    Poimâine, 23 Mai, Miercuri

    Timp Temperatura Precipitaţii Vânt Presiune Umiditate
    00:00 +20°C° 0 mm 2 m/s 669 mmHg 37%
    01:00 +19°C° 0 mm 2 m/s 669 mmHg 38%
    02:00 +18°C° 0 mm 2 m/s 669 mmHg 40%
    03:00 +18°C° 0 mm 2 m/s 669 mmHg 42%
    04:00 +17°C° 0 mm 2 m/s 668 mmHg 43%
    05:00 +17°C° 0 mm 2 m/s 669 mmHg 44%
    06:00 +17°C° 0 mm 2 m/s 669 mmHg 45%
    07:00 +17°C° 0 mm 2 m/s 669 mmHg 46%
    08:00 +20°C° 0 mm 3 m/s 670 mmHg 38%
    09:00 +25°C° 0 mm 3 m/s 672 mmHg 30%
    10:00 +29°C° 0 mm 4 m/s 673 mmHg 22%
    11:00 +30°C° 0 mm 4 m/s 672 mmHg 20%
    12:00 +32°C° 0 mm 4 m/s 672 mmHg 18%
    13:00 +33°C° 0 mm 4 m/s 671 mmHg 16%
    14:00 +32°C° 0 mm 4 m/s 671 mmHg 16%
    15:00 +32°C° 0 mm 4 m/s 670 mmHg 16%
    16:00 +31°C° 0 mm 3 m/s 670 mmHg 16%
    17:00 +28°C° 0 mm 3 m/s 670 mmHg 20%
    18:00 +26°C° 0 mm 2 m/s 669 mmHg 23%
    19:00 +23°C° 0 mm 2 m/s 669 mmHg 27%
    20:00 +21°C° 0 mm 2 m/s 669 mmHg 28%
    21:00 +20°C° 0 mm 2 m/s 670 mmHg 30%
    22:00 +20°C° 0 mm 2 m/s 670 mmHg 32%
    23:00 +19°C° 0 mm 2 m/s 670 mmHg 34%

    24 Mai, Joi

    Timp Temperatura Precipitaţii Vânt Presiune Umiditate
    00:00 +18°C° 0 mm 2 m/s 670 mmHg 36%
    01:00 +18°C° 0 mm 2 m/s 669 mmHg 37%
    02:00 +17°C° 0 mm 2 m/s 669 mmHg 40%
    03:00 +16°C° 0 mm 2 m/s 669 mmHg 43%
    04:00 +16°C° 0 mm 1 m/s 668 mmHg 45%
    05:00 +16°C° 0 mm 1 m/s 669 mmHg 46%
    06:00 +16°C° 0 mm 1 m/s 669 mmHg 47%
    07:00 +16°C° 0 mm 1 m/s 669 mmHg 49%
    08:00 +19°C° 0 mm 2 m/s 670 mmHg 41%
    09:00 +24°C° 0 mm 2 m/s 671 mmHg 33%
    10:00 +27°C° 0 mm 3 m/s 672 mmHg 25%
    11:00 +29°C° 0 mm 3 m/s 671 mmHg 22%
    12:00 +30°C° 0 mm 4 m/s 671 mmHg 20%
    13:00 +32°C° 0 mm 4 m/s 670 mmHg 17%
    14:00 +32°C° 0 mm 4 m/s 670 mmHg 17%
    15:00 +31°C° 0 mm 3 m/s 670 mmHg 16%
    16:00 +30°C° 0 mm 3 m/s 669 mmHg 16%
    17:00 +28°C° 0 mm 3 m/s 669 mmHg 20%
    18:00 +25°C° 0 mm 2 m/s 669 mmHg 24%
    19:00 +23°C° 0 mm 2 m/s 668 mmHg 27%
    20:00 +21°C° 0 mm 2 m/s 669 mmHg 29%
    21:00 +20°C° 0 mm 2 m/s 669 mmHg 31%
    22:00 +20°C° 0 mm 2 m/s 669 mmHg 33%
    23:00 +19°C° 0 mm 2 m/s 669 mmHg 38%

    25 Mai, Vineri

    Timp Temperatura Precipitaţii Vânt Presiune Umiditate
    00:00 +18°C° 0 mm 2 m/s 669 mmHg 42%
    01:00 +17°C° 0 mm 2 m/s 668 mmHg 47%
    02:00 +16°C° 0 mm 2 m/s 668 mmHg 51%
    03:00 +16°C° 0 mm 2 m/s 668 mmHg 54%
    04:00 +15°C° 0 mm 2 m/s 668 mmHg 57%
    05:00 +15°C° 0 mm 1 m/s 668 mmHg 57%
    06:00 +15°C° 0 mm 1 m/s 669 mmHg 58%
    07:00 +15°C° 0 mm 1 m/s 669 mmHg 58%
    08:00 +19°C° 0 mm 2 m/s 670 mmHg 49%
    09:00 +22°C° 0 mm 3 m/s 671 mmHg 39%
    10:00 +27°C° 0 mm 3 m/s 671 mmHg 30%
    11:00 +28°C° 0 mm 4 m/s 671 mmHg 26%
    12:00 +29°C° 0 mm 4 m/s 670 mmHg 23%
    13:00 +32°C° 0 mm 4 m/s 669 mmHg 19%
    14:00 +30°C° 0 mm 4 m/s 669 mmHg 19%
    15:00 +30°C° 0 mm 4 m/s 669 mmHg 19%
    16:00 +30°C° 0 mm 3 m/s 668 mmHg 19%
    17:00 +28°C° 0 mm 3 m/s 668 mmHg 23%
    18:00 +25°C° 0 mm 2 m/s 668 mmHg 27%
    19:00 +23°C° 0 mm 2 m/s 668 mmHg 31%
    20:00 +21°C° 0 mm 2 m/s 669 mmHg 33%
    21:00 +21°C° 0 mm 2 m/s 669 mmHg 34%
    22:00 +20°C° 0 mm 2 m/s 669 mmHg 36%
    23:00 +20°C° 0 mm 2 m/s 669 mmHg 40%

    26 Mai, Sâmbătă

    Timp Temperatura Precipitaţii Vânt Presiune Umiditate
    00:00 +19°C° 0 mm 2 m/s 668 mmHg 43%
    01:00 +18°C° 0 mm 2 m/s 668 mmHg 46%
    02:00 +18°C° 0 mm 2 m/s 668 mmHg 49%
    03:00 +17°C° 0 mm 2 m/s 668 mmHg 52%
    04:00 +17°C° 0 mm 2 m/s 668 mmHg 54%
    05:00 +17°C° 0 mm 2 m/s 668 mmHg 56%
    06:00 +16°C° 0 mm 2 m/s 668 mmHg 58%
    07:00 +16°C° 0 mm 2 m/s 669 mmHg 59%
    08:00 +20°C° 0 mm 3 m/s 670 mmHg 49%
    09:00 +23°C° 0 mm 4 m/s 670 mmHg 39%
    10:00 +28°C° 0 mm 5 m/s 671 mmHg 28%
    11:00 +29°C° 0 mm 5 m/s 671 mmHg 26%
    12:00 +30°C° 0 mm 5 m/s 670 mmHg 25%
    13:00 +32°C° 0 mm 5 m/s 669 mmHg 23%
    14:00 +32°C° 0 mm 4 m/s 669 mmHg 24%
    15:00 +30°C° 0 mm 4 m/s 669 mmHg 25%
    16:00 +30°C° 0 mm 4 m/s 668 mmHg 26%
    17:00 +28°C° 0 mm 4 m/s 669 mmHg 30%
    18:00 +26°C° 0 mm 4 m/s 669 mmHg 34%
    19:00 +24°C° 0 mm 3 m/s 669 mmHg 38%
    20:00 +22°C° 0 mm 3 m/s 669 mmHg 41%
    21:00 +21°C° 0 mm 3 m/s 669 mmHg 44%
    22:00 +20°C° 0 mm 2 m/s 669 mmHg 48%
    23:00 +19°C° 0 mm 2 m/s 669 mmHg 50%
    Arată mai mult